Weather History for Lee's Summit, MO

Change the Weather History Date:

Thursday, March 8, 2012

  Actual Average (KMKC) Record (KMKC)
Temperature  
Mean Temperature 39 °F -  
Max Temperature 45 °F 47 °F 75 °F (2006)
Min Temperature 33 °F 28 °F 10 °F (2008)
Degree Days  
Heating Degree Days 26    
Moisture  
Dew Point 27 °F    
Average Humidity 68    
Maximum Humidity 93    
Minimum Humidity 37    
Precipitation  
Precipitation 0.37 in - - ()
Sea Level Pressure  
Sea Level Pressure 30.29 in    
Wind  
Wind Speed 13 mph (NNW)    
Max Wind Speed 23 mph    
Max Gust Speed 31 mph    
Visibility 9 miles    
Events Rain , Snow    
Averages and records for this station are not official NWS values.
T = Trace of Precipitation, MM = Missing Value Source: NWS Daily Summary

Daily Weather History Graph

Daily Weather History Graph

Search for Another Location

Airport:

Trip Planner

Search our weather history database for the weather conditions in past years. The results will help you decide how hot, cold, wet, or windy it might be!

Date:

Astronomy

Mar. 08, 2012 Rise Set
Actual Time 6:38 AM CST 6:18 PM CST
Civil Twilight 6:12 AM CST 6:44 PM CST
Nautical Twilight 5:41 AM CST 7:15 PM CST
Astronomical Twilight 5:10 AM CST 7:46 PM CST
Moon 7:05 PM CST (3/8) 6:23 AM CST (3/8)
Length of Visible Light 12h 32m
Length of Day
11h 39m
Full, 100% of the Moon is Illuminated
Mar 8
Full
Mar 14
Last Quarter
Mar 22
New
Mar 30
First Quarter
Apr 6
Full

Hourly Weather History & Observations

Time (CST) Temp. Windchill Dew Point Humidity Pressure Visibility Wind Dir Wind Speed Gust Speed Precip Events Conditions
12:53 AM 42.1 °F 36.1 °F 33.1 °F 70% 30.04 in 10.0 mi North 10.4 mph - N/A   Overcast
1:43 AM 41.0 °F 32.5 °F 33.8 °F 76% 30.06 in 7.0 mi NNW 17.3 mph - 0.02 in Rain Light Rain
2:13 AM 39.2 °F 30.8 °F 33.8 °F 81% 30.12 in 9.0 mi NNW 15.0 mph 19.6 mph 0.01 in Rain Light Rain
2:53 AM 37.0 °F 27.7 °F 33.1 °F 86% 30.12 in 3.0 mi North 16.1 mph - 0.18 in Rain Heavy Rain
3:12 AM 35.6 °F 24.0 °F 33.8 °F 93% 30.14 in 6.0 mi NNW 23.0 mph 31.1 mph 0.07 in Rain Rain
3:28 AM 35.6 °F 24.5 °F 32.0 °F 87% 30.13 in 5.0 mi NNW 20.7 mph 31.1 mph 0.08 in Snow Light Snow
3:40 AM 35.6 °F 25.2 °F 32.0 °F 87% 30.14 in 8.0 mi North 18.4 mph 31.1 mph 0.08 in   Overcast
3:53 AM 35.1 °F 25.9 °F 30.9 °F 85% 30.18 in 7.0 mi NNW 13.8 mph 21.9 mph 0.08 in   Overcast
4:21 AM 33.8 °F 24.8 °F 30.2 °F 87% 30.17 in 5.0 mi NNW 12.7 mph - 0.03 in Rain Light Rain
4:53 AM 34.0 °F 24.6 °F 30.9 °F 89% 30.17 in 5.0 mi North 13.8 mph - 0.11 in Rain Light Rain
5:08 AM 33.8 °F 24.3 °F 30.2 °F 87% 30.18 in 9.0 mi North 13.8 mph - 0.00 in   Overcast
5:16 AM 33.8 °F 26.4 °F 30.2 °F 87% 30.18 in 9.0 mi North 9.2 mph - 0.00 in   Mostly Cloudy
5:23 AM 33.8 °F 25.3 °F 30.2 °F 87% 30.19 in 9.0 mi North 11.5 mph - 0.00 in   Overcast
5:53 AM 34.0 °F 24.2 °F 30.0 °F 85% 30.22 in 10.0 mi NNW 15.0 mph - 0.00 in   Mostly Cloudy
6:53 AM 34.0 °F 26.6 °F 28.0 °F 79% 30.29 in 10.0 mi NW 9.2 mph - N/A   Overcast
7:53 AM 34.0 °F 25.5 °F 27.0 °F 75% 30.32 in 10.0 mi NNW 11.5 mph - N/A   Clear
8:53 AM 34.0 °F 24.2 °F 27.0 °F 75% 30.36 in 10.0 mi NNW 15.0 mph - N/A   Clear
9:53 AM 35.1 °F 25.5 °F 26.1 °F 70% 30.35 in 10.0 mi North 15.0 mph - N/A   Clear
10:53 AM 36.0 °F 28.5 °F 25.0 °F 64% 30.40 in 10.0 mi NNW 10.4 mph - N/A   Clear
11:53 AM 37.9 °F 28.9 °F 24.1 °F 57% 30.36 in 10.0 mi North 16.1 mph - N/A   Clear
12:53 PM 41.0 °F 32.5 °F 24.1 °F 51% 30.37 in 10.0 mi North 17.3 mph 20.7 mph N/A   Clear
1:53 PM 43.0 °F 35.4 °F 24.1 °F 47% 30.38 in 10.0 mi NNE 16.1 mph 23.0 mph N/A   Clear
2:53 PM 45.0 °F 39.3 °F 21.0 °F 39% 30.40 in 10.0 mi North 11.5 mph - N/A   Clear
4:53 PM 45.0 °F 41.8 °F 19.9 °F 37% 30.41 in 10.0 mi NE 5.8 mph - N/A   Clear
5:53 PM 44.1 °F - 19.0 °F 37% 30.41 in 10.0 mi Calm Calm - N/A   Clear
6:53 PM 42.1 °F - 19.0 °F 40% 30.43 in 10.0 mi Calm Calm - N/A   Clear
7:53 PM 39.0 °F 35.7 °F 19.9 °F 46% 30.44 in 10.0 mi WSW 4.6 mph - N/A   Clear
8:53 PM 37.9 °F 33.5 °F 19.9 °F 48% 30.46 in 10.0 mi WSW 5.8 mph - N/A   Clear
9:53 PM 37.9 °F 34.4 °F 19.9 °F 48% 30.48 in 10.0 mi SW 4.6 mph - N/A   Clear
10:53 PM 36.0 °F 31.1 °F 19.9 °F 52% 30.51 in 10.0 mi SW 5.8 mph - N/A   Clear
11:53 PM 36.0 °F 31.1 °F 19.0 °F 50% 30.52 in 10.0 mi SW 5.8 mph - N/A   Clear